When you browse on this site, cookies collect data to enhance your experience and personalize the content and advertising you see.
Visit our Privacy Policy to learn more. By continuing to use the site, you agree to this use of cookies and data.
  • In Latvia
  • List of Countries
  • For 7 days
  • Water Temperature
  • Weather Map
  • Weather Widgets
  • user-avatar
    Login

    Hourly Weather Dahab

    Today, 31 May, Sunday

    Time Temperature Precipitation Wind Pressure Humidity
    00:00 +22°C° 0 mm 4 mps 713 mmHg 33%
    01:00 +22°C° 0 mm 4 mps 713 mmHg 35%
    02:00 +21°C° 0 mm 4 mps 712 mmHg 35%
    03:00 +21°C° 0 mm 4 mps 712 mmHg 36%
    04:00 +20°C° 0 mm 4 mps 712 mmHg 37%
    05:00 +20°C° 0 mm 4 mps 712 mmHg 39%
    06:00 +22°C° 0 mm 4 mps 713 mmHg 34%
    07:00 +26°C° 0 mm 4 mps 713 mmHg 29%
    08:00 +29°C° 0 mm 4 mps 713 mmHg 23%
    09:00 +30°C° 0 mm 4 mps 713 mmHg 21%
    10:00 +32°C° 0 mm 5 mps 713 mmHg 20%
    11:00 +34°C° 0 mm 6 mps 713 mmHg 19%
    12:00 +34°C° 0 mm 5 mps 712 mmHg 19%
    13:00 +35°C° 0 mm 5 mps 712 mmHg 18%
    14:00 +35°C° 0 mm 5 mps 711 mmHg 18%
    15:00 +35°C° 0 mm 5 mps 711 mmHg 19%
    16:00 +34°C° 0 mm 4 mps 711 mmHg 19%
    17:00 +34°C° 0 mm 4 mps 711 mmHg 20%
    18:00 +32°C° 0 mm 4 mps 711 mmHg 22%
    19:00 +29°C° 0 mm 4 mps 711 mmHg 24%
    20:00 +28°C° 0 mm 4 mps 712 mmHg 27%
    21:00 +27°C° 0 mm 4 mps 712 mmHg 28%
    22:00 +26°C° 0 mm 4 mps 712 mmHg 29%
    23:00 +26°C° 0 mm 4 mps 712 mmHg 30%

    Tomorrow, 1 June, Monday

    Time Temperature Precipitation Wind Pressure Humidity
    00:00 +25°C° 0 mm 4 mps 712 mmHg 27%
    01:00 +25°C° 0 mm 4 mps 712 mmHg 25%
    02:00 +23°C° 0 mm 5 mps 711 mmHg 23%
    03:00 +23°C° 0 mm 4 mps 711 mmHg 20%
    04:00 +23°C° 0 mm 4 mps 712 mmHg 17%
    05:00 +22°C° 0 mm 4 mps 712 mmHg 15%
    06:00 +25°C° 0 mm 4 mps 712 mmHg 14%
    07:00 +27°C° 0 mm 5 mps 712 mmHg 12%
    08:00 +29°C° 0 mm 5 mps 712 mmHg 11%
    09:00 +32°C° 0 mm 5 mps 712 mmHg 12%
    10:00 +33°C° 0 mm 6 mps 712 mmHg 13%
    11:00 +35°C° 0 mm 6 mps 713 mmHg 14%
    12:00 +35°C° 0 mm 6 mps 712 mmHg 15%
    13:00 +35°C° 0 mm 6 mps 711 mmHg 15%
    14:00 +36°C° 0 mm 6 mps 711 mmHg 16%
    15:00 +35°C° 0 mm 6 mps 711 mmHg 16%
    16:00 +35°C° 0 mm 5 mps 711 mmHg 16%
    17:00 +35°C° 0 mm 5 mps 710 mmHg 16%
    18:00 +33°C° 0 mm 4 mps 710 mmHg 18%
    19:00 +30°C° 0 mm 4 mps 711 mmHg 20%
    20:00 +28°C° 0 mm 3 mps 711 mmHg 21%
    21:00 +28°C° 0 mm 3 mps 711 mmHg 21%
    22:00 +28°C° 0 mm 3 mps 711 mmHg 21%
    23:00 +27°C° 0 mm 3 mps 711 mmHg 21%

    Day after tomorrow, 2 June, Tuesday

    Time Temperature Precipitation Wind Pressure Humidity
    00:00 +27°C° 0 mm 3 mps 710 mmHg 22%
    01:00 +26°C° 0 mm 2 mps 710 mmHg 23%
    02:00 +25°C° 0 mm 2 mps 709 mmHg 24%
    03:00 +25°C° 0 mm 2 mps 709 mmHg 25%
    04:00 +25°C° 0 mm 1 mps 709 mmHg 26%
    05:00 +24°C° 0 mm 1 mps 709 mmHg 27%
    06:00 +27°C° 0 mm 2 mps 709 mmHg 24%
    07:00 +30°C° 0 mm 2 mps 710 mmHg 21%
    08:00 +34°C° 0 mm 2 mps 711 mmHg 18%
    09:00 +35°C° 0 mm 3 mps 711 mmHg 17%
    10:00 +36°C° 0 mm 3 mps 711 mmHg 17%
    11:00 +37°C° 0 mm 4 mps 711 mmHg 16%
    12:00 +37°C° 0 mm 4 mps 710 mmHg 16%
    13:00 +39°C° 0 mm 5 mps 710 mmHg 15%
    14:00 +39°C° 0 mm 6 mps 710 mmHg 14%
    15:00 +37°C° 0 mm 5 mps 709 mmHg 15%
    16:00 +37°C° 0 mm 4 mps 709 mmHg 15%
    17:00 +36°C° 0 mm 4 mps 709 mmHg 16%
    18:00 +34°C° 0 mm 4 mps 710 mmHg 17%
    19:00 +31°C° 0 mm 3 mps 710 mmHg 18%
    20:00 +30°C° 0 mm 3 mps 710 mmHg 19%
    21:00 +29°C° 0 mm 3 mps 710 mmHg 19%
    22:00 +28°C° 0 mm 3 mps 711 mmHg 20%
    23:00 +27°C° 0 mm 3 mps 711 mmHg 20%

    3 June, Wednesday

    Time Temperature Precipitation Wind Pressure Humidity
    00:00 +27°C° 0 mm 4 mps 710 mmHg 23%
    01:00 +26°C° 0 mm 4 mps 710 mmHg 26%
    02:00 +25°C° 0 mm 4 mps 710 mmHg 29%
    03:00 +25°C° 0 mm 4 mps 710 mmHg 31%
    04:00 +23°C° 0 mm 4 mps 710 mmHg 34%
    05:00 +23°C° 0 mm 4 mps 710 mmHg 37%
    06:00 +26°C° 0 mm 4 mps 711 mmHg 33%
    07:00 +28°C° 0 mm 4 mps 711 mmHg 30%
    08:00 +29°C° 0 mm 4 mps 711 mmHg 27%
    09:00 +32°C° 0 mm 5 mps 711 mmHg 25%
    10:00 +33°C° 0 mm 5 mps 712 mmHg 22%
    11:00 +34°C° 0 mm 5 mps 712 mmHg 20%
    12:00 +35°C° 0 mm 5 mps 711 mmHg 19%
    13:00 +35°C° 0 mm 5 mps 711 mmHg 18%
    14:00 +36°C° 0 mm 4 mps 710 mmHg 17%
    15:00 +36°C° 0 mm 4 mps 710 mmHg 16%
    16:00 +35°C° 0 mm 4 mps 710 mmHg 16%
    17:00 +35°C° 0 mm 3 mps 710 mmHg 15%
    18:00 +33°C° 0 mm 3 mps 711 mmHg 17%
    19:00 +31°C° 0 mm 3 mps 711 mmHg 18%
    20:00 +29°C° 0 mm 3 mps 711 mmHg 20%
    21:00 +28°C° 0 mm 3 mps 711 mmHg 20%
    22:00 +28°C° 0 mm 3 mps 711 mmHg 20%
    23:00 +27°C° 0 mm 3 mps 711 mmHg 21%

    4 June, Thursday

    Time Temperature Precipitation Wind Pressure Humidity
    00:00 +27°C° 0 mm 3 mps 711 mmHg 22%
    01:00 +26°C° 0 mm 3 mps 711 mmHg 23%
    02:00 +26°C° 0 mm 3 mps 711 mmHg 24%
    03:00 +26°C° 0 mm 3 mps 711 mmHg 24%
    04:00 +26°C° 0 mm 3 mps 711 mmHg 25%
    05:00 +26°C° 0 mm 3 mps 711 mmHg 26%
    06:00 +28°C° 0 mm 3 mps 711 mmHg 23%
    07:00 +30°C° 0 mm 4 mps 712 mmHg 21%
    08:00 +33°C° 0 mm 4 mps 712 mmHg 18%
    09:00 +34°C° 0 mm 4 mps 712 mmHg 18%
    10:00 +35°C° 0 mm 4 mps 712 mmHg 17%
    11:00 +36°C° 0 mm 3 mps 712 mmHg 16%
    12:00 +37°C° 0 mm 3 mps 712 mmHg 16%
    13:00 +38°C° 0 mm 3 mps 711 mmHg 15%
    14:00 +38°C° 0 mm 3 mps 711 mmHg 14%
    15:00 +38°C° 0 mm 3 mps 711 mmHg 15%
    16:00 +38°C° 0 mm 3 mps 711 mmHg 15%
    17:00 +37°C° 0 mm 3 mps 711 mmHg 15%
    18:00 +35°C° 0 mm 3 mps 711 mmHg 18%
    19:00 +34°C° 0 mm 3 mps 711 mmHg 20%
    20:00 +31°C° 0 mm 2 mps 711 mmHg 22%
    21:00 +30°C° 0 mm 3 mps 711 mmHg 23%
    22:00 +30°C° 0 mm 3 mps 712 mmHg 24%
    23:00 +29°C° 0 mm 4 mps 712 mmHg 24%

    5 June, Friday

    Time Temperature Precipitation Wind Pressure Humidity
    00:00 +29°C° 0 mm 4 mps 712 mmHg 26%
    01:00 +28°C° 0 mm 4 mps 712 mmHg 28%
    02:00 +27°C° 0 mm 4 mps 712 mmHg 30%
    03:00 +27°C° 0 mm 4 mps 712 mmHg 31%
    04:00 +26°C° 0 mm 4 mps 712 mmHg 32%
    05:00 +26°C° 0 mm 4 mps 712 mmHg 34%
    06:00 +28°C° 0 mm 4 mps 712 mmHg 30%
    07:00 +30°C° 0 mm 4 mps 713 mmHg 26%
    08:00 +33°C° 0 mm 4 mps 713 mmHg 22%
    09:00 +35°C° 0 mm 4 mps 713 mmHg 20%
    10:00 +36°C° 0 mm 4 mps 713 mmHg 19%
    11:00 +37°C° 0 mm 4 mps 713 mmHg 17%
    12:00 +38°C° 0 mm 4 mps 713 mmHg 16%
    13:00 +38°C° 0 mm 3 mps 712 mmHg 16%
    14:00 +39°C° 0 mm 3 mps 712 mmHg 15%
    15:00 +38°C° 0 mm 3 mps 712 mmHg 14%
    16:00 +38°C° 0 mm 2 mps 712 mmHg 14%
    17:00 +38°C° 0 mm 2 mps 711 mmHg 14%
    18:00 +36°C° 0 mm 2 mps 712 mmHg 17%
    19:00 +33°C° 0 mm 3 mps 712 mmHg 21%
    20:00 +30°C° 0 mm 3 mps 712 mmHg 25%
    21:00 +29°C° 0 mm 3 mps 713 mmHg 27%
    22:00 +29°C° 0 mm 3 mps 713 mmHg 29%
    23:00 +28°C° 0 mm 3 mps 713 mmHg 30%
    Show more